IGO319 VAAH-VECC

Flight info

Callsign IGO319
Flight time 1h 59m
Altitude 37000
Route BODAR1A BODAR G590 BPL A791 SEBMA Q19 JJS JJS2A
Aircraft A320/M-SDE3FGHIRWY/LB1

Departure

Time 2026-04-21 16:39
Airport Sardar Vallabh Patel International Airport (VAAH)

Arrival

Time 2026-04-21 18:38
Airport Netaji Subhash Chandra Bose International Airport (VECC)
Time Latitude Longitude Altitude Speed Heading
2026-04-21 16:10 23.07160 72.61878 206 ft 0 kts 46°
2026-04-21 16:22 23.07159 72.61877 195 ft 2 kts 46°
2026-04-21 16:22 23.07142 72.61856 207 ft 4 kts 56°
2026-04-21 16:22 23.07130 72.61830 198 ft 4 kts 78°
2026-04-21 16:22 23.07131 72.61805 206 ft 3 kts 130°
2026-04-21 16:23 23.07136 72.61799 207 ft 0 kts 135°
2026-04-21 16:30 23.07135 72.61799 195 ft 1 kts 135°
2026-04-21 16:30 23.07128 72.61807 208 ft 2 kts 135°
2026-04-21 16:30 23.07113 72.61824 202 ft 4 kts 135°
2026-04-21 16:31 23.07088 72.61851 202 ft 6 kts 135°
2026-04-21 16:31 23.07055 72.61887 202 ft 8 kts 135°
2026-04-21 16:31 23.07014 72.61933 199 ft 9 kts 135°
2026-04-21 16:31 23.06965 72.61989 202 ft 11 kts 134°
2026-04-21 16:32 23.06907 72.62053 199 ft 13 kts 134°
2026-04-21 16:32 23.06908 72.62120 203 ft 10 kts 54°
2026-04-21 16:32 23.06872 72.62195 195 ft 14 kts 135°
2026-04-21 16:32 23.06862 72.62278 197 ft 14 kts 43°
2026-04-21 16:33 23.06934 72.62352 192 ft 15 kts 44°
2026-04-21 16:33 23.07010 72.62436 198 ft 17 kts 45°
2026-04-21 16:33 23.07104 72.62536 192 ft 20 kts 45°
2026-04-21 16:33 23.07208 72.62650 198 ft 22 kts 43°
2026-04-21 16:34 23.07325 72.62772 195 ft 24 kts 44°
2026-04-21 16:34 23.07447 72.62901 198 ft 25 kts 44°
2026-04-21 16:34 23.07573 72.63033 202 ft 26 kts 44°
2026-04-21 16:34 23.07701 72.63167 200 ft 26 kts 44°
2026-04-21 16:35 23.07834 72.63311 198 ft 24 kts 44°
2026-04-21 16:35 23.07918 72.63419 196 ft 18 kts 68°
2026-04-21 16:35 23.08004 72.63533 199 ft 21 kts 45°
2026-04-21 16:35 23.08111 72.63648 203 ft 22 kts 45°
2026-04-21 16:36 23.08226 72.63773 202 ft 24 kts 44°
2026-04-21 16:36 23.08346 72.63898 198 ft 24 kts 45°
2026-04-21 16:36 23.08467 72.64030 203 ft 25 kts 45°
2026-04-21 16:36 23.08581 72.64152 204 ft 16 kts 44°
2026-04-21 16:37 23.08594 72.64231 203 ft 9 kts 136°
2026-04-21 16:37 23.08561 72.64265 204 ft 6 kts 136°
2026-04-21 16:37 23.08530 72.64293 199 ft 5 kts 157°
2026-04-21 16:37 23.08504 72.64284 196 ft 4 kts 213°
2026-04-21 16:38 23.08487 72.64264 201 ft 5 kts 225°
2026-04-21 16:38 23.08338 72.64105 204 ft 64 kts 224°
2026-04-21 16:38 23.07878 72.63612 205 ft 119 kts 224°
2026-04-21 16:38 23.07180 72.62867 201 ft 160 kts 224°
2026-04-21 16:39 23.06330 72.61970 538 ft 172 kts 220°
2026-04-21 16:39 23.05291 72.61303 1026 ft 178 kts 199°
2026-04-21 16:39 23.04051 72.61087 1512 ft 186 kts 185°
2026-04-21 16:39 23.02705 72.61235 1675 ft 207 kts 168°
2026-04-21 16:40 23.01300 72.61879 1800 ft 234 kts 149°
2026-04-21 16:40 23.00022 72.63077 1997 ft 259 kts 136°
2026-04-21 16:40 22.98907 72.64729 2327 ft 279 kts 112°
2026-04-21 16:40 22.98360 72.66775 2938 ft 287 kts 105°
2026-04-21 16:41 22.98014 72.68179 3313 ft 293 kts 106°
2026-04-21 16:41 22.97317 72.71037 4385 ft 292 kts 105°
2026-04-21 16:41 22.96818 72.73165 5211 ft 291 kts 105°
2026-04-21 16:41 22.96320 72.75301 6006 ft 292 kts 106°
2026-04-21 16:42 22.95818 72.77444 6746 ft 294 kts 106°
2026-04-21 16:42 22.95308 72.79603 7445 ft 297 kts 107°
2026-04-21 16:42 22.94786 72.81794 8134 ft 302 kts 107°
2026-04-21 16:42 22.94255 72.84011 8818 ft 306 kts 107°
2026-04-21 16:43 22.93717 72.86259 9511 ft 310 kts 107°
2026-04-21 16:43 22.93173 72.88540 10053 ft 320 kts 107°
2026-04-21 16:43 22.92763 72.90998 10190 ft 344 kts 92°
2026-04-21 16:43 22.92870 72.93656 10458 ft 359 kts 87°
2026-04-21 16:44 22.93028 72.96382 11007 ft 364 kts 87°
2026-04-21 16:44 22.93195 72.99132 11612 ft 366 kts 86°
2026-04-21 16:44 22.93365 73.01897 12235 ft 368 kts 86°
2026-04-21 16:44 22.93534 73.04674 12854 ft 370 kts 86°
2026-04-21 16:45 22.93703 73.07467 13469 ft 372 kts 86°
2026-04-21 16:45 22.93865 73.10268 14020 ft 373 kts 86°
2026-04-21 16:45 22.94025 73.13087 14543 ft 375 kts 86°
2026-04-21 16:45 22.94184 73.15884 15052 ft 378 kts 86°
2026-04-21 16:46 22.94346 73.18736 15574 ft 380 kts 86°
2026-04-21 16:46 22.94508 73.21602 16095 ft 382 kts 86°
2026-04-21 16:46 22.94670 73.24487 16601 ft 384 kts 86°
2026-04-21 16:46 22.94834 73.27390 17101 ft 387 kts 86°
2026-04-21 16:47 22.95000 73.30306 17593 ft 389 kts 86°
2026-04-21 16:47 22.95166 73.33248 18086 ft 392 kts 86°
2026-04-21 16:47 22.95331 73.36198 18527 ft 393 kts 86°
2026-04-21 16:47 22.95494 73.39173 18993 ft 395 kts 86°
2026-04-21 16:48 22.95660 73.42151 19454 ft 397 kts 85°
2026-04-21 16:48 22.95827 73.45146 19919 ft 398 kts 85°
2026-04-21 16:48 22.95992 73.48146 20384 ft 400 kts 85°
2026-04-21 16:48 22.96157 73.51168 20834 ft 401 kts 85°
2026-04-21 16:49 22.96322 73.54189 21286 ft 403 kts 85°
2026-04-21 16:49 22.96488 73.57234 21733 ft 404 kts 85°
2026-04-21 16:49 22.96652 73.60288 22166 ft 406 kts 85°
2026-04-21 16:49 22.96815 73.63348 22601 ft 408 kts 85°
2026-04-21 16:50 22.96981 73.66430 23047 ft 409 kts 85°
2026-04-21 16:50 22.97151 73.69516 23480 ft 411 kts 85°
2026-04-21 16:50 22.97323 73.72615 23828 ft 412 kts 85°
2026-04-21 16:50 22.97496 73.75769 24166 ft 415 kts 85°
2026-04-21 16:51 22.97661 73.78861 24492 ft 417 kts 85°
2026-04-21 16:51 22.97829 73.82049 24831 ft 419 kts 85°
2026-04-21 16:51 22.97993 73.85217 25161 ft 422 kts 85°
2026-04-21 16:51 22.98160 73.88405 25489 ft 424 kts 85°
2026-04-21 16:52 22.98327 73.91571 25812 ft 427 kts 85°
2026-04-21 16:52 22.98498 73.94831 26149 ft 429 kts 85°
2026-04-21 16:52 22.98610 73.96975 26359 ft 431 kts 85°
2026-04-21 16:52 22.98837 74.01330 26789 ft 434 kts 85°
2026-04-21 16:53 22.99006 74.04611 27113 ft 436 kts 85°
2026-04-21 16:53 22.99173 74.07904 27449 ft 439 kts 85°
2026-04-21 16:53 22.99341 74.11222 27767 ft 441 kts 85°
2026-04-21 16:53 22.99507 74.14558 28090 ft 444 kts 85°
2026-04-21 16:54 22.99675 74.17906 28406 ft 446 kts 85°
2026-04-21 16:54 22.99848 74.21282 28726 ft 449 kts 84°
2026-04-21 16:54 23.00022 74.24674 29046 ft 451 kts 84°
2026-04-21 16:54 23.00194 74.28038 29349 ft 454 kts 84°
2026-04-21 16:55 23.00369 74.31498 29765 ft 454 kts 84°
2026-04-21 16:55 23.00539 74.34912 30174 ft 453 kts 84°
2026-04-21 16:55 23.00651 74.37176 30420 ft 453 kts 84°
2026-04-21 16:55 23.00822 74.40599 30747 ft 454 kts 84°
2026-04-21 16:56 23.00991 74.44010 31102 ft 454 kts 84°
2026-04-21 16:56 23.01160 74.47436 31466 ft 454 kts 84°
2026-04-21 16:56 23.01326 74.50853 31836 ft 453 kts 84°
2026-04-21 16:56 23.01490 74.54263 32214 ft 453 kts 84°
2026-04-21 16:57 23.01650 74.57671 32596 ft 452 kts 84°
2026-04-21 16:57 23.01812 74.61082 32978 ft 452 kts 84°
2026-04-21 16:57 23.01976 74.64483 33368 ft 451 kts 84°
2026-04-21 16:57 23.02141 74.67887 33742 ft 451 kts 84°
2026-04-21 16:58 23.02304 74.71281 34086 ft 451 kts 85°
2026-04-21 16:58 23.02465 74.74677 34376 ft 450 kts 85°
2026-04-21 16:58 23.02625 74.78075 34671 ft 450 kts 85°
2026-04-21 16:58 23.02781 74.81468 34953 ft 450 kts 85°
2026-04-21 16:59 23.02938 74.84862 35225 ft 450 kts 85°
2026-04-21 16:59 23.03096 74.88262 35495 ft 450 kts 86°
2026-04-21 16:59 23.03251 74.91652 35752 ft 450 kts 86°
2026-04-21 16:59 23.03405 74.95050 36006 ft 450 kts 86°
2026-04-21 17:00 23.03558 74.98444 36265 ft 450 kts 86°
2026-04-21 17:00 23.03714 75.01841 36508 ft 450 kts 86°
2026-04-21 17:00 23.03819 75.04087 36667 ft 450 kts 86°
2026-04-21 17:00 23.04027 75.08630 36909 ft 452 kts 87°
2026-04-21 17:01 23.04180 75.12060 36941 ft 457 kts 87°
2026-04-21 17:01 23.04487 75.19007 36936 ft 464 kts 87°
2026-04-21 17:02 23.04789 75.26015 36942 ft 465 kts 88°
2026-04-21 17:02 23.05096 75.33029 36940 ft 465 kts 88°
2026-04-21 17:03 23.05407 75.40044 36946 ft 465 kts 88°
2026-04-21 17:03 23.05704 75.47063 36943 ft 466 kts 88°
2026-04-21 17:04 23.06000 75.54103 36937 ft 467 kts 88°
2026-04-21 17:04 23.06303 75.61156 36938 ft 468 kts 88°
2026-04-21 17:05 23.06596 75.68224 36947 ft 469 kts 88°
2026-04-21 17:05 23.06880 75.75291 36951 ft 469 kts 88°
2026-04-21 17:06 23.07169 75.82370 36937 ft 470 kts 89°
2026-04-21 17:06 23.07456 75.89475 36928 ft 472 kts 89°
2026-04-21 17:07 23.07737 75.96607 36929 ft 473 kts 89°
2026-04-21 17:07 23.08015 76.03762 36938 ft 474 kts 89°
2026-04-21 17:08 23.08290 76.10916 36933 ft 475 kts 89°
2026-04-21 17:08 23.08567 76.18090 36922 ft 476 kts 89°
2026-04-21 17:09 23.08974 76.28909 36904 ft 480 kts 89°
2026-04-21 17:09 23.09236 76.36109 36901 ft 481 kts 89°
2026-04-21 17:10 23.09511 76.43419 36913 ft 482 kts 89°
2026-04-21 17:10 23.09782 76.50649 36908 ft 483 kts 90°
2026-04-21 17:11 23.10043 76.57946 36891 ft 485 kts 90°
2026-04-21 17:11 23.10301 76.65278 36883 ft 487 kts 90°
2026-04-21 17:12 23.10555 76.72635 36890 ft 488 kts 90°
2026-04-21 17:12 23.10803 76.80010 36897 ft 489 kts 90°
2026-04-21 17:13 23.11053 76.87395 36896 ft 490 kts 90°
2026-04-21 17:13 23.11305 76.94799 36878 ft 491 kts 91°
2026-04-21 17:14 23.11550 77.02228 36875 ft 493 kts 91°
2026-04-21 17:14 23.11790 77.09685 36878 ft 494 kts 91°
2026-04-21 17:15 23.12028 77.17150 36891 ft 495 kts 91°
2026-04-21 17:15 23.12263 77.24618 36879 ft 495 kts 91°
2026-04-21 17:16 23.12498 77.32114 36862 ft 497 kts 91°
2026-04-21 17:16 23.12731 77.39635 36862 ft 499 kts 91°
2026-04-21 17:17 23.12958 77.47180 36870 ft 500 kts 91°
2026-04-21 17:17 23.13181 77.54736 36873 ft 501 kts 91°
2026-04-21 17:18 23.13402 77.62309 36860 ft 502 kts 92°
2026-04-21 17:18 23.13621 77.69909 36846 ft 504 kts 92°
2026-04-21 17:19 23.13830 77.77537 36849 ft 506 kts 92°
2026-04-21 17:19 23.14042 77.85186 36850 ft 507 kts 92°
2026-04-21 17:20 23.14260 77.92852 36851 ft 508 kts 92°
2026-04-21 17:20 23.14472 78.00526 36834 ft 509 kts 92°
2026-04-21 17:21 23.14667 78.08222 36833 ft 511 kts 92°
2026-04-21 17:21 23.14859 78.15951 36833 ft 512 kts 92°
2026-04-21 17:22 23.15061 78.23704 36843 ft 513 kts 92°
2026-04-21 17:22 23.15257 78.31461 36849 ft 514 kts 92°
2026-04-21 17:23 23.15448 78.39230 36856 ft 514 kts 92°
2026-04-21 17:23 23.15629 78.46997 36857 ft 515 kts 92°
2026-04-21 17:24 23.15807 78.54770 36861 ft 515 kts 92°
2026-04-21 17:24 23.15986 78.62560 36864 ft 515 kts 92°
2026-04-21 17:25 23.16162 78.70339 36858 ft 515 kts 93°
2026-04-21 17:25 23.16335 78.78128 36848 ft 516 kts 93°
2026-04-21 17:26 23.16500 78.85937 36847 ft 517 kts 93°
2026-04-21 17:26 23.16660 78.93760 36850 ft 518 kts 93°
2026-04-21 17:27 23.16817 79.01592 36852 ft 518 kts 93°
2026-04-21 17:27 23.16972 79.09416 36848 ft 519 kts 93°
2026-04-21 17:28 23.17124 79.17261 36834 ft 520 kts 93°
2026-04-21 17:28 23.17284 79.25139 36830 ft 521 kts 94°
2026-04-21 17:29 23.17431 79.32964 36833 ft 522 kts 94°
2026-04-21 17:29 23.17569 79.40855 36842 ft 522 kts 94°
2026-04-21 17:30 23.17712 79.48807 36823 ft 524 kts 94°
2026-04-21 17:30 23.17847 79.56738 36821 ft 526 kts 94°
2026-04-21 17:31 23.17976 79.64638 36825 ft 527 kts 94°
2026-04-21 17:31 23.18098 79.72605 36827 ft 528 kts 94°
2026-04-21 17:32 23.18218 79.80584 36832 ft 528 kts 94°
2026-04-21 17:32 23.18339 79.88581 36816 ft 530 kts 94°
2026-04-21 17:33 23.18454 79.96595 36819 ft 531 kts 94°
2026-04-21 17:33 23.18570 80.04621 36823 ft 532 kts 94°
2026-04-21 17:34 23.18455 80.12632 36829 ft 529 kts 99°
2026-04-21 17:34 23.17959 80.20588 36822 ft 527 kts 101°
2026-04-21 17:35 23.17407 80.28547 36822 ft 529 kts 100°
2026-04-21 17:35 23.16959 80.36545 36826 ft 531 kts 99°
2026-04-21 17:36 23.16569 80.44566 36826 ft 532 kts 99°
2026-04-21 17:36 23.16162 80.52596 36850 ft 532 kts 99°
2026-04-21 17:37 23.15732 80.60631 36844 ft 533 kts 99°
2026-04-21 17:37 23.15286 80.68671 36846 ft 534 kts 99°
2026-04-21 17:38 23.14834 80.76716 36838 ft 534 kts 99°
2026-04-21 17:38 23.14399 80.84768 36851 ft 534 kts 99°
2026-04-21 17:39 23.14047 80.91506 36865 ft 533 kts 99°
2026-04-21 17:39 23.13611 80.99540 36855 ft 533 kts 99°
2026-04-21 17:40 23.13154 81.07581 36848 ft 532 kts 99°
2026-04-21 17:40 23.12699 81.15605 36848 ft 533 kts 99°
2026-04-21 17:41 23.12251 81.23641 36845 ft 533 kts 99°
2026-04-21 17:41 23.11800 81.31668 36854 ft 532 kts 99°
2026-04-21 17:42 23.11345 81.39690 36850 ft 532 kts 99°
2026-04-21 17:42 23.10880 81.47713 36856 ft 532 kts 100°
2026-04-21 17:43 23.10405 81.55739 36847 ft 532 kts 100°
2026-04-21 17:43 23.09930 81.63758 36845 ft 532 kts 99°
2026-04-21 17:44 23.09459 81.71779 36838 ft 532 kts 100°
2026-04-21 17:44 23.08981 81.79789 36848 ft 531 kts 100°
2026-04-21 17:45 23.08494 81.87789 36845 ft 531 kts 100°
2026-04-21 17:45 23.08003 81.95788 36841 ft 530 kts 100°
2026-04-21 17:46 23.07511 82.03775 36841 ft 530 kts 100°
2026-04-21 17:46 23.07019 82.11704 36838 ft 530 kts 100°
2026-04-21 17:47 23.06533 82.19685 36830 ft 530 kts 99°
2026-04-21 17:47 23.06175 82.27744 36828 ft 531 kts 98°
2026-04-21 17:48 23.05892 82.35756 36831 ft 531 kts 98°
2026-04-21 17:48 23.05571 82.43714 36822 ft 531 kts 99°
2026-04-21 17:49 23.05199 82.51764 36817 ft 530 kts 99°
2026-04-21 17:49 23.04825 82.59707 36817 ft 530 kts 99°
2026-04-21 17:50 23.04461 82.67701 36819 ft 530 kts 99°
2026-04-21 17:50 23.04095 82.75702 36819 ft 531 kts 99°
2026-04-21 17:51 23.03721 82.83703 36821 ft 531 kts 99°
2026-04-21 17:51 23.03340 82.91707 36820 ft 531 kts 99°
2026-04-21 17:52 23.02960 82.99716 36822 ft 531 kts 99°
2026-04-21 17:52 23.02574 83.07719 36829 ft 531 kts 99°
2026-04-21 17:53 23.02185 83.15728 36839 ft 531 kts 99°
2026-04-21 17:53 23.01794 83.23735 36844 ft 531 kts 99°
2026-04-21 17:54 23.01405 83.31744 36864 ft 531 kts 99°
2026-04-21 17:54 23.01005 83.39751 36861 ft 531 kts 99°
2026-04-21 17:55 23.00589 83.47738 36876 ft 531 kts 99°
2026-04-21 17:55 23.00177 83.55740 36874 ft 531 kts 99°
2026-04-21 17:56 22.99772 83.63738 36886 ft 531 kts 99°
2026-04-21 17:56 22.99362 83.71734 36890 ft 531 kts 99°
2026-04-21 17:57 22.98938 83.79723 36895 ft 530 kts 99°
2026-04-21 17:57 22.98511 83.87704 36867 ft 529 kts 99°
2026-04-21 17:58 22.98081 83.95663 36904 ft 528 kts 99°
2026-04-21 17:58 22.97642 84.03594 36897 ft 526 kts 99°
2026-04-21 17:59 22.97211 84.11523 36903 ft 526 kts 99°
2026-04-21 17:59 22.96729 84.19423 36899 ft 524 kts 101°
2026-04-21 18:00 22.96145 84.27297 36902 ft 523 kts 101°
2026-04-21 18:00 22.95538 84.35160 36904 ft 523 kts 101°
2026-04-21 18:01 22.94946 84.43025 36912 ft 523 kts 101°
2026-04-21 18:01 22.94374 84.50886 36910 ft 522 kts 101°
2026-04-21 18:02 22.93806 84.58739 36906 ft 522 kts 101°
2026-04-21 18:02 22.93220 84.66579 36903 ft 522 kts 101°
2026-04-21 18:03 22.92625 84.74418 36904 ft 521 kts 101°
2026-04-21 18:03 22.92034 84.82239 36908 ft 520 kts 101°
2026-04-21 18:04 22.91438 84.90054 36908 ft 520 kts 101°
2026-04-21 18:04 22.90838 84.97867 36915 ft 520 kts 101°
2026-04-21 18:05 22.90238 85.05626 36909 ft 520 kts 101°
2026-04-21 18:05 22.89629 85.13485 36896 ft 519 kts 101°
2026-04-21 18:06 22.89032 85.21239 36893 ft 520 kts 101°
2026-04-21 18:06 22.88423 85.29100 36894 ft 519 kts 101°
2026-04-21 18:07 22.87820 85.36849 36895 ft 519 kts 101°
2026-04-21 18:07 22.87211 85.44649 36881 ft 519 kts 101°
2026-04-21 18:08 22.86601 85.52441 36883 ft 519 kts 101°
2026-04-21 18:08 22.85980 85.60238 36865 ft 519 kts 101°
2026-04-21 18:09 22.85357 85.68024 36869 ft 519 kts 101°
2026-04-21 18:09 22.84731 85.75867 36857 ft 519 kts 101°
2026-04-21 18:10 22.84107 85.83614 36853 ft 519 kts 101°
2026-04-21 18:10 22.83466 85.91403 36846 ft 519 kts 101°
2026-04-21 18:11 22.82830 85.99193 35953 ft 524 kts 101°
2026-04-21 18:11 22.82499 86.03156 35057 ft 531 kts 101°
2026-04-21 18:11 22.82163 86.07153 34462 ft 531 kts 100°
2026-04-21 18:12 22.81892 86.11133 33918 ft 531 kts 95°
2026-04-21 18:12 22.82126 86.15135 33313 ft 535 kts 84°
2026-04-21 18:12 22.82975 86.19069 32721 ft 535 kts 72°
2026-04-21 18:12 22.84391 86.22777 32177 ft 532 kts 62°
2026-04-21 18:13 22.86234 86.26229 31639 ft 527 kts 57°
2026-04-21 18:13 22.88115 86.29626 31123 ft 524 kts 57°
2026-04-21 18:13 22.89984 86.33001 30632 ft 519 kts 57°
2026-04-21 18:13 22.91833 86.36344 30141 ft 515 kts 57°
2026-04-21 18:14 22.95488 86.42967 29091 ft 506 kts 57°
2026-04-21 18:14 22.97232 86.46263 28568 ft 502 kts 63°
2026-04-21 18:14 22.98485 86.49781 28065 ft 498 kts 75°
2026-04-21 18:15 22.99109 86.53435 27817 ft 486 kts 86°
2026-04-21 18:15 22.99153 86.57042 27672 ft 470 kts 96°
2026-04-21 18:15 22.98927 86.60544 27395 ft 462 kts 96°
2026-04-21 18:15 22.98697 86.64005 26991 ft 458 kts 97°
2026-04-21 18:16 22.98462 86.67445 26584 ft 455 kts 97°
2026-04-21 18:16 22.98223 86.70850 26197 ft 451 kts 97°
2026-04-21 18:16 22.97981 86.74230 25830 ft 447 kts 97°
2026-04-21 18:16 22.97741 86.77576 25469 ft 444 kts 97°
2026-04-21 18:17 22.97501 86.80902 25101 ft 440 kts 97°
2026-04-21 18:17 22.97267 86.84202 24738 ft 437 kts 97°
2026-04-21 18:17 22.97039 86.87473 24379 ft 433 kts 96°
2026-04-21 18:17 22.96814 86.90713 24023 ft 429 kts 96°
2026-04-21 18:18 22.96590 86.93932 23664 ft 426 kts 96°
2026-04-21 18:18 22.96365 86.97117 23308 ft 422 kts 96°
2026-04-21 18:18 22.96138 87.00275 22893 ft 418 kts 96°
2026-04-21 18:18 22.95909 87.03409 22464 ft 414 kts 96°
2026-04-21 18:19 22.95684 87.06513 22040 ft 411 kts 96°
2026-04-21 18:19 22.95463 87.09590 21610 ft 408 kts 96°
2026-04-21 18:19 22.95243 87.12650 21158 ft 406 kts 96°
2026-04-21 18:19 22.95023 87.15700 20598 ft 407 kts 96°
2026-04-21 18:20 22.94801 87.18765 20050 ft 407 kts 95°
2026-04-21 18:20 22.94577 87.21829 19503 ft 407 kts 95°
2026-04-21 18:20 22.94350 87.24888 18982 ft 407 kts 95°
2026-04-21 18:20 22.94201 87.26916 18630 ft 407 kts 95°
2026-04-21 18:21 22.93989 87.29976 18114 ft 406 kts 94°
2026-04-21 18:21 22.93809 87.32989 17524 ft 395 kts 94°
2026-04-21 18:21 22.93647 87.35963 16992 ft 394 kts 93°
2026-04-21 18:21 22.93490 87.38918 16490 ft 392 kts 93°
2026-04-21 18:22 22.93333 87.41859 16001 ft 390 kts 93°
2026-04-21 18:22 22.93173 87.44787 15518 ft 388 kts 93°
2026-04-21 18:22 22.93009 87.47696 15043 ft 385 kts 93°
2026-04-21 18:22 22.92841 87.50592 14575 ft 383 kts 92°
2026-04-21 18:23 22.92672 87.53469 14114 ft 381 kts 92°
2026-04-21 18:23 22.92502 87.56318 13642 ft 373 kts 92°
2026-04-21 18:23 22.92336 87.59076 13149 ft 362 kts 92°
2026-04-21 18:23 22.92173 87.61806 12643 ft 363 kts 92°
2026-04-21 18:24 22.92012 87.64539 12156 ft 363 kts 92°
2026-04-21 18:24 22.91851 87.67267 11668 ft 362 kts 92°
2026-04-21 18:24 22.91691 87.69986 11193 ft 362 kts 92°
2026-04-21 18:24 22.91531 87.72706 10713 ft 361 kts 92°
2026-04-21 18:25 22.91371 87.75384 10234 ft 350 kts 92°
2026-04-21 18:25 22.91213 87.77971 9773 ft 338 kts 93°
2026-04-21 18:25 22.91059 87.80474 9286 ft 328 kts 93°
2026-04-21 18:25 22.90913 87.82904 8791 ft 319 kts 93°
2026-04-21 18:26 22.90772 87.85275 8307 ft 312 kts 93°
2026-04-21 18:26 22.90633 87.87603 7826 ft 308 kts 93°
2026-04-21 18:26 22.90492 87.89943 7352 ft 313 kts 93°
2026-04-21 18:26 22.90347 87.92318 6903 ft 317 kts 94°
2026-04-21 18:27 22.90203 87.94677 6744 ft 309 kts 93°
2026-04-21 18:27 22.90047 87.96963 6749 ft 303 kts 95°
2026-04-21 18:27 22.89838 87.99229 6750 ft 302 kts 96°
2026-04-21 18:27 22.89600 88.01497 6750 ft 302 kts 96°
2026-04-21 18:28 22.89355 88.03755 6750 ft 302 kts 96°
2026-04-21 18:28 22.89111 88.06017 6750 ft 302 kts 96°
2026-04-21 18:28 22.88872 88.08286 6750 ft 302 kts 96°
2026-04-21 18:28 22.88676 88.10549 6612 ft 301 kts 90°
2026-04-21 18:29 22.88741 88.12808 6292 ft 300 kts 87°
2026-04-21 18:29 22.88829 88.15065 5976 ft 299 kts 87°
2026-04-21 18:29 22.88920 88.17305 5729 ft 297 kts 88°
2026-04-21 18:29 22.89018 88.19542 5489 ft 296 kts 87°
2026-04-21 18:30 22.89123 88.21767 5252 ft 295 kts 88°
2026-04-21 18:30 22.89237 88.23981 5017 ft 294 kts 88°
2026-04-21 18:30 22.89356 88.26188 4783 ft 292 kts 88°
2026-04-21 18:30 22.89486 88.28383 4550 ft 291 kts 88°
2026-04-21 18:31 22.89628 88.30557 4312 ft 288 kts 88°
2026-04-21 18:31 22.89779 88.32707 4067 ft 284 kts 88°
2026-04-21 18:31 22.89934 88.34834 3829 ft 281 kts 88°
2026-04-21 18:31 22.90090 88.36910 3594 ft 278 kts 87°
2026-04-21 18:32 22.90242 88.38988 3359 ft 274 kts 90°
2026-04-21 18:32 22.90153 88.41020 3127 ft 266 kts 104°
2026-04-21 18:32 22.89591 88.42871 3003 ft 252 kts 121°
2026-04-21 18:32 22.88661 88.44394 2990 ft 233 kts 136°
2026-04-21 18:33 22.87520 88.45530 2993 ft 213 kts 150°
2026-04-21 18:33 22.86291 88.46294 2993 ft 197 kts 162°
2026-04-21 18:33 22.85014 88.46735 2995 ft 189 kts 173°
2026-04-21 18:33 22.83723 88.46880 2990 ft 185 kts 184°
2026-04-21 18:34 22.82454 88.46771 2874 ft 182 kts 189°
2026-04-21 18:34 22.81205 88.46624 2661 ft 179 kts 189°
2026-04-21 18:34 22.79977 88.46479 2453 ft 177 kts 189°
2026-04-21 18:34 22.78791 88.46341 2230 ft 165 kts 189°
2026-04-21 18:35 22.78052 88.46254 2079 ft 157 kts 189°
2026-04-21 18:35 22.76667 88.46092 1845 ft 143 kts 189°
2026-04-21 18:35 22.75695 88.45978 1665 ft 138 kts 189°
2026-04-21 18:35 22.74749 88.45867 1494 ft 135 kts 188°
2026-04-21 18:36 22.73813 88.45757 1311 ft 135 kts 187°
2026-04-21 18:36 22.72886 88.45648 1135 ft 134 kts 189°
2026-04-21 18:36 22.71962 88.45539 968 ft 133 kts 189°
2026-04-21 18:36 22.71040 88.45432 803 ft 132 kts 186°
2026-04-21 18:37 22.70124 88.45324 620 ft 134 kts 186°
2026-04-21 18:37 22.69190 88.45215 474 ft 136 kts 186°
2026-04-21 18:37 22.68261 88.45104 301 ft 134 kts 185°
2026-04-21 18:37 22.67350 88.44998 60 ft 130 kts 185°
2026-04-21 18:38 22.66493 88.44893 28 ft 112 kts 187°
2026-04-21 18:38 22.65850 88.44827 29 ft 74 kts 186°
2026-04-21 18:38 22.65433 88.44778 28 ft 49 kts 186°
2026-04-21 18:38 22.65111 88.44741 27 ft 46 kts 187°
2026-04-21 18:39 22.64867 88.44637 24 ft 36 kts 212°
2026-04-21 18:39 22.64712 88.44521 23 ft 19 kts 214°
2026-04-21 18:39 22.64658 88.44432 24 ft 10 kts 275°
2026-04-21 18:39 22.64666 88.44352 24 ft 12 kts 276°
2026-04-21 18:40 22.64677 88.44254 24 ft 14 kts 277°
2026-04-21 18:40 22.64675 88.44176 24 ft 9 kts 263°
2026-04-21 18:40 22.64679 88.44131 24 ft 9 kts 274°
2026-04-21 18:40 22.64680 88.44115 24 ft 0 kts 274°